Regional Weather Roundup
Issued by NWS

Home | Current Version | Previous Version | Graphics & Text | Print | Product List | Glossary On
Versions: 1 2 3 4 5 6 7 8 9 10 11 12 13 14 15 16 17 18 19 20 21 22 23 24 25 26 27 28 29 30 31 32 33 34 35 36 37 38 39 40 41 42 43 44 45 46 47 48 49 50
000
ASUS43 KLOT 180808
RWRIL

ILLINOIS REGIONAL WEATHER ROUNDUP
NATIONAL WEATHER SERVICE CHICAGO/ROMEOVILLE IL
300 AM CDT FRI AUG 18 2017

NOTE: "FAIR" INDICATES FEW OR NO CLOUDS BELOW 12,000 FEET WITH NO
SIGNIFICANT WEATHER AND/OR OBSTRUCTIONS TO VISIBILITY.

* THESE STATIONS ARE NOT UNDER NWS QUALITY CONTROL. THEY ALSO MAY NOT
  REPORT WEATHER SUCH AS PRECIPITATION OR FOG.

ILZ001-002-007-009-015-016-024-180900-
NORTHWEST ILLINOIS

CITY           SKY/WX    TMP DP  RH WIND       PRES   REMARKS
MOLINE         CLEAR     68  62  81 W8        29.85R
STERLING*      CLEAR     65  63  93 W8        29.84R
SAVANNA*       CLEAR     66  63  89 W8        29.83S
$$

ILZ003-004-008-010-011-017-018-180900-
NORTH CENTRAL ILLINOIS

CITY           SKY/WX    TMP DP  RH WIND       PRES   REMARKS
ROCKFORD       PTCLDY    65  63  93 W7        29.81S
FREEPORT*      PTCLDY    63  62  96 W5        29.83R
ROCHELLE*      CLEAR     64  63  94 W7        29.83R
DE KALB*       CLEAR     65  63  93 W8        29.82R
PERU*          CLEAR     65  62  90 W9        29.83R
$$

ILZ005-006-012>014-019>023-180900-
NORTHEAST ILLINOIS

CITY           SKY/WX    TMP DP  RH WIND       PRES   REMARKS
CHICAGO-OHARE  PTCLDY    70  61  73 W12       29.77R
CHICAGO-MIDWAY MOCLDY    71  64  78 W10       29.78R
AURORA         CLEAR     65  64  97 W8        29.81R
LANSING*       CLEAR     69  62  77 W9        29.80R
JOLIET*        CLEAR     69  65  90 W7        29.81S
WAUKEGAN       PTCLDY    67  63  87 VRB5      29.75R
DUPAGE AIRPORT PTCLDY    68  65  90 W10       29.79R
KANKAKEE*      CLEAR     66  64  94 W7        29.82R
WHEELING       MOCLDY    68  65  90 W9        29.79R
MORRIS*        CLEAR     66  64  91 W8        29.80S
ROMEOVILLE*    CLEAR     66  62  86 W10       29.80S
NORTHERLY ISL    N/A     72  63  73 W8          N/A
$$

LMZ740>746-180900-
SOUTHERN LAKE MICHIGAN

STATION/POSITION SKY/WX   TEMP    WIND        PRES    VSBY  WAVE
                          AIR SEA DIR/SP/G                  HT/PER
                          (F)     (DEG/KT/KT) (MB)    (MI)  (FT/S)
SOUTHERN BUOY              70 71  310/ 19/ 23 1006.1R         4/ 5
WILMETTE HARBOR            70 72  270/ 14/ 16   N/A           1/ 2
HARRISON CRIB              72     290/ 11/ 12   N/A
CALUMET HARBOR             71     250/  4/  8 1008.0R
BURNS HARBOR               73     260/ 16/ 18 1008.8R
MICHIGAN CITY              73     250/ 20/ 22   N/A
MICHIGAN CITY 6N           72 74  300/ 16/ 19   N/A           4/ 4
ST. JOSEPH                 72 73  300/ 17/ 23 1007.5          5/ 5
$$

ILZ025>027-034>036-040-047-049-050-058-095>099-180900-
WEST-CENTRAL ILLINOIS

CITY           SKY/WX    TMP DP  RH WIND       PRES   REMARKS
QUINCY         CLEAR     64  60  87 W5        29.90S
GALESBURG*     CLEAR     64  62  91 W6        29.87S
MACOMB*        PTCLDY    63  62  97 SW5       29.89S
JACKSONVILLE*  PTCLDY    64  61  88 W3        29.89R
PITTSFIELD*    PTCLDY    67  62  84 W5        29.92R
$$

ILZ028>032-037-038-041>044-048-051>054-059>061-180900-
CENTRAL ILLINOIS

CITY           SKY/WX    TMP DP  RH WIND       PRES   REMARKS
PONTIAC        CLEAR     66  66  98 W8        29.84R
BLOOMINGTON    CLEAR     66  62  87 W8        29.87R
DECATUR        CLEAR     68  64  87 W6        29.87R
PEORIA         CLEAR     68  64  87 W6        29.86R
LACON*         CLEAR     65  63  92 CALM      29.84R
LINCOLN*       CLEAR     71  65  81 CALM      29.86S
SPRINGFIELD    PTCLDY    65  63  93 SW3       29.88R
TAYLORVILLE    PTCLDY    64  64  97 W6        29.88R
$$

ILZ033-039-045-046-055>057-062-063-180900-
EAST-CENTRAL ILLINOIS

CITY           SKY/WX    TMP DP  RH WIND       PRES   REMARKS
CHAMPAIGN      CLEAR     65  63  93 W6        29.86R
RANTOUL*       CLEAR     69  65  89 W5        29.85R
MATTOON        CLEAR     67  66  97 W5        29.86R
PARIS*         CLEAR     65  64  98 SW5       29.86S
$$

ILZ079-100>102-180900-
SOUTHWEST ILLINOIS

CITY           SKY/WX    TMP DP  RH WIND       PRES   REMARKS
ALTON          CLOUDY    67  64  90 W8        29.91R
BELLEVILLE     CLEAR     67  64  89 SW5       29.91R
CAHOKIA*       CLEAR     71  63  75 W6        29.90S
SPARTA*        CLEAR     68  64  89 CALM      29.92S
$$

ILZ064>066-069>071-074>076-080>082-084>086-088>090-092>094-180900-
SOUTH-CENTRAL ILLINOIS

CITY           SKY/WX    TMP DP  RH WIND       PRES   REMARKS
CARBONDALE     CLEAR     67  67 100 W7        29.91S
CAIRO*         PTCLDY    70  70  98 W3        29.93R
EFFINGHAM*     CLEAR     67  65  93 SW3       29.89S
MARION         CLEAR     72  70  94 CALM      29.92S
MT. VERNON     CLEAR     64  63  96 CALM      29.90S
CENTRALIA*     CLEAR     67  65  96 SW6       29.89S
SALEM*         CLEAR     67  64  90 SW6       29.89S
METROPOLIS*    CLEAR     73  72  98 CALM      29.93R
$$

ILZ067-068-072-073-078-083-087-091-180900-
SOUTHEAST ILLINOIS

CITY           SKY/WX    TMP DP  RH WIND       PRES   REMARKS
LAWRENCEVILLE  CLEAR     68  66  93 SW5       29.87S
FLORA*         CLEAR     69  66  90 W7        29.89R
FAIRFIELD*     CLEAR     67  67  98 CALM      29.88R
HARRISBURG*    CLEAR     69  68  95 SW3       29.91R
ROBINSON*      CLEAR     67  65  94 W8        29.87S
CARMI*         CLEAR     67  66  97 SW3       29.89R
$$

ABBREVIATIONS USED IN REMARKS
   TC - TEMPERATURE IN CELSIUS
  WCI - WIND CHILL INDEX
   HX - HEAT INDEX
  VSB - VISIBILITY
$$




USA.gov is the U.S. government's official web portal to all federal, state and local government web resources and services.